�N����,����,�~����,�C��,���x,�C��,����,���ϕ���,�ő�u�ԕ���,�ő厞����,���˗�,�I�_���x,�n�����x,�ő啗���N��,DTYPE
"17/05/18","00:10",0.0,13.6,76.6,1006.9,338.9,2.0,3.3,338.6,0.00,9.6,16.4,"00:02:16",1
"17/05/18","00:20",0.0,13.4,78.1,1006.9,334.5,2.0,3.2,335.8,0.00,9.7,16.5,"00:14:24",1
"17/05/18","00:30",0.0,13.2,78.9,1007.1,334.2,2.1,3.1,339.3,0.00,9.7,16.2,"00:23:20",1
"17/05/18","00:40",0.0,13.0,80.1,1007.1,327.4,2.0,2.6,338.6,0.00,9.7,16.3,"00:31:04",1
"17/05/18","00:50",0.0,12.9,80.2,1007.4,320.2,1.8,2.7,314.2,0.00,9.6,16.1,"00:41:52",1
"17/05/18","01:00",0.0,12.9,81.6,1007.1,324.9,2.1,3.2,324.9,0.00,9.9,16.3,"00:54:52",1
"17/05/18","01:10",0.0,13.2,81.3,1006.9,327.4,2.5,4.2,328.9,0.00,10.1,16.1,"01:08:00",1
"17/05/18","01:20",0.0,13.5,79.9,1007.1,327.5,3.0,4.5,335.6,0.00,10.1,16.2,"01:15:20",1
"17/05/18","01:30",0.0,13.5,79.7,1007.4,328.0,2.8,3.9,329.3,0.00,10.1,16.1,"01:21:20",1
"17/05/18","01:40",0.0,13.1,80.2,1007.6,336.8,2.0,3.1,330.6,0.00,9.8,16.0,"01:30:32",1
"17/05/18","01:50",0.0,12.8,82.0,1007.8,339.7,2.2,3.7,345.4,0.00,9.8,16.1,"01:49:20",1
"17/05/18","02:00",0.0,12.9,82.7,1007.4,331.3,2.7,4.4,329.9,0.00,10.1,15.9,"01:54:32",1
"17/05/18","02:10",0.0,13.0,82.3,1007.8,329.9,2.8,4.7,328.3,0.00,10.1,15.9,"02:09:28",1
"17/05/18","02:20",0.0,13.1,82.2,1007.8,328.1,3.1,4.5,333.1,0.00,10.2,15.9,"02:16:50",1
"17/05/18","02:30",0.0,13.1,82.1,1007.8,330.3,3.2,4.3,321.2,0.00,10.2,15.9,"02:25:20",1
"17/05/18","02:40",0.0,12.8,83.1,1008.1,332.8,2.6,4.5,324.4,0.00,10.0,15.8,"02:39:14",1
"17/05/18","02:50",0.0,12.6,83.9,1008.1,333.6,2.2,4.1,335.6,0.00,10.0,15.6,"02:41:46",1
"17/05/18","03:00",0.0,12.6,84.6,1008.3,336.5,2.8,5.2,341.7,0.00,10.1,15.7,"02:55:54",1
"17/05/18","03:10",0.0,12.6,84.8,1008.1,335.6,3.0,4.7,338.0,0.00,10.2,15.8,"03:08:42",1
"17/05/18","03:20",0.0,12.7,84.5,1008.3,332.7,3.1,4.9,328.9,0.00,10.2,15.6,"03:10:32",1
"17/05/18","03:30",0.0,12.7,84.2,1008.3,332.3,3.2,4.9,335.0,0.00,10.1,15.8,"03:27:24",1
"17/05/18","03:40",0.0,12.6,84.2,1008.6,331.7,3.0,5.1,329.4,0.00,10.0,15.4,"03:30:02",1
"17/05/18","03:50",0.0,12.5,84.3,1008.1,328.1,3.7,5.0,336.5,0.00,10.0,15.3,"03:49:24",1
"17/05/18","04:00",0.0,12.6,84.2,1008.3,330.4,4.0,5.4,317.4,0.00,10.0,15.3,"03:55:46",1
"17/05/18","04:10",0.0,12.3,84.8,1008.3,332.2,3.0,6.0,340.7,0.00,9.9,15.3,"04:09:54",1
"17/05/18","04:20",0.0,12.2,85.5,1008.6,336.8,3.2,5.6,349.6,0.00,9.9,15.3,"04:15:22",1
"17/05/18","04:30",0.0,12.2,85.9,1008.6,329.0,4.1,5.6,332.1,0.00,10.0,15.1,"04:29:20",1
"17/05/18","04:40",0.0,12.2,86.0,1008.1,328.0,4.5,5.7,335.7,0.00,10.0,15.2,"04:32:48",1
"17/05/18","04:50",0.0,12.1,86.1,1008.6,328.8,3.9,5.8,330.0,0.00,9.9,15.3,"04:43:04",1
"17/05/18","05:00",0.0,12.0,86.4,1008.6,332.3,3.1,5.6,336.4,0.00,9.8,15.0,"04:55:28",1
"17/05/18","05:10",0.0,11.9,87.0,1008.3,334.6,2.7,4.5,337.2,0.00,9.8,15.2,"05:06:56",1
"17/05/18","05:20",0.0,11.9,87.6,1008.3,334.1,3.0,4.3,324.7,0.00,9.9,15.2,"05:13:04",1
"17/05/18","05:30",0.0,12.0,87.6,1009.0,329.1,3.4,5.2,319.9,0.00,10.0,15.0,"05:27:12",1
"17/05/18","05:40",0.0,12.1,87.3,1008.6,328.4,4.1,6.7,334.3,0.00,10.1,15.0,"05:33:20",1
"17/05/18","05:50",0.0,12.2,87.3,1009.3,325.6,3.5,5.7,341.5,0.00,10.2,15.1,"05:48:10",1
"17/05/18","06:00",0.0,12.3,87.4,1009.0,333.0,3.2,5.6,334.5,0.00,10.3,14.8,"05:50:40",1
"17/05/18","06:10",0.0,12.6,87.2,1009.0,334.3,3.2,4.5,319.8,0.01,10.6,15.2,"06:02:08",1
"17/05/18","06:20",0.2,13.2,86.1,1009.3,336.4,3.1,5.6,338.9,0.03,11.0,15.0,"06:19:28",1
"17/05/18","06:30",0.0,13.7,84.6,1009.7,334.7,2.3,4.5,325.2,0.04,11.2,14.9,"06:26:24",1
"17/05/18","06:40",0.0,14.2,82.1,1009.5,329.5,3.1,4.8,332.8,0.06,11.2,14.8,"06:35:20",1
"17/05/18","06:50",0.0,14.7,80.6,1010.0,322.7,2.6,4.8,334.0,0.08,11.4,15.2,"06:42:24",1
"17/05/18","07:00",0.0,15.1,78.0,1010.0,325.7,2.2,4.3,343.5,0.11,11.3,15.2,"06:59:20",1
"17/05/18","07:10",0.0,15.7,76.1,1009.7,329.7,2.1,3.4,344.8,0.13,11.5,15.2,"07:00:56",1
"17/05/18","07:20",0.0,16.2,74.7,1010.2,333.6,2.0,3.9,343.5,0.16,11.7,15.4,"07:10:08",1
"17/05/18","07:30",0.0,16.9,71.9,1010.2,340.9,1.5,3.1,342.7,0.18,11.8,15.3,"07:27:20",1
"17/05/18","07:40",0.0,17.2,69.4,1010.0,338.1,1.6,3.2,343.2,0.21,11.6,15.7,"07:38:00",1
"17/05/18","07:50",0.0,17.5,68.5,1010.2,326.3,1.5,2.2,324.7,0.24,11.7,15.8,"07:40:08",1
"17/05/18","08:00",0.0,18.5,66.4,1010.0,312.5,0.8,1.9,339.2,0.26,12.2,15.9,"07:56:16",1
"17/05/18","08:10",0.0,18.5,64.2,1010.0,342.2,1.2,2.5,324.5,0.29,11.7,16.2,"08:03:28",1
"17/05/18","08:20",0.0,19.1,61.4,1009.7,22.3,0.6,1.4,54.3,0.32,11.5,16.4,"08:13:52",1
"17/05/18","08:30",0.0,19.8,57.3,1009.7,33.5,0.7,2.6,4.3,0.34,11.2,16.6,"08:26:16",1
"17/05/18","08:40",0.0,19.5,57.3,1009.7,1.3,1.2,3.1,59.0,0.37,10.9,16.7,"08:38:32",1
"17/05/18","08:50",0.0,20.3,57.1,1009.5,71.4,0.8,2.1,108.5,0.39,11.6,17.2,"08:46:32",1
"17/05/18","09:00",0.0,20.9,56.5,1009.3,88.6,0.7,1.4,18.6,0.41,12.0,17.4,"08:52:48",1
"17/05/18","09:10",0.0,20.9,55.3,1009.3,190.4,1.0,2.2,201.7,0.44,11.7,17.6,"09:05:52",1
"17/05/18","09:20",0.0,21.1,51.9,1009.5,132.6,1.0,1.8,141.9,0.45,10.9,17.8,"09:12:40",1
"17/05/18","09:30",0.0,21.1,53.2,1009.5,168.4,1.2,3.6,228.8,0.47,11.3,18.1,"09:26:24",1
"17/05/18","09:40",0.0,21.9,52.1,1009.0,150.8,1.1,3.4,189.3,0.49,11.7,18.5,"09:39:28",1
"17/05/18","09:50",0.0,22.3,48.3,1008.8,120.7,1.0,2.5,145.2,0.51,10.9,18.7,"09:40:08",1
"17/05/18","10:00",0.0,22.9,47.5,1008.8,184.0,0.8,2.2,181.3,0.53,11.2,19.0,"09:59:12",1
"17/05/18","10:10",0.0,22.3,49.4,1009.0,212.9,1.5,3.7,222.0,0.54,11.2,19.3,"10:07:52",1
"17/05/18","10:20",0.0,22.7,50.2,1008.8,188.9,1.7,3.2,170.7,0.55,11.9,19.6,"10:14:32",1
"17/05/18","10:30",0.0,22.7,46.2,1009.0,214.5,1.7,3.5,187.0,0.57,10.6,19.8,"10:20:24",1
"17/05/18","10:40",0.0,23.2,44.1,1008.8,202.7,1.3,3.2,183.0,0.58,10.4,20.2,"10:32:08",1
"17/05/18","10:50",0.0,23.4,47.0,1008.6,160.5,2.0,4.3,136.2,0.59,11.5,20.4,"10:49:20",1
"17/05/18","11:00",0.0,23.4,46.9,1008.3,181.9,2.2,4.0,197.8,0.60,11.5,20.8,"10:51:12",1
"17/05/18","11:10",0.0,23.6,44.9,1008.1,153.1,1.6,2.8,183.9,0.61,11.0,21.0,"11:01:20",1
"17/05/18","11:20",0.0,24.7,44.2,1008.3,131.6,1.3,5.2,151.3,0.62,11.7,21.3,"11:19:28",1
"17/05/18","11:30",0.0,24.7,42.6,1007.8,182.7,1.6,5.5,136.0,0.63,11.2,21.7,"11:29:44",1
"17/05/18","11:40",0.0,24.7,43.6,1007.6,153.9,1.7,5.0,218.6,0.63,11.5,21.7,"11:31:36",1
"17/05/18","11:50",0.0,25.3,41.7,1007.4,138.7,1.5,4.1,119.4,0.63,11.4,22.0,"11:47:12",1
"17/05/18","12:00",0.0,25.9,38.1,1007.1,139.2,1.0,2.7,123.9,0.63,10.6,22.2,"11:50:08",1
"17/05/18","12:10",0.0,25.8,33.7,1006.7,339.3,1.6,4.0,339.8,0.64,8.7,22.7,"12:07:16",1
"17/05/18","12:20",0.0,25.6,31.5,1006.7,303.4,2.0,4.3,322.0,0.64,7.5,22.7,"12:15:04",1
"17/05/18","12:30",0.0,26.7,28.0,1006.7,322.9,1.5,3.5,342.1,0.64,6.7,22.9,"12:21:52",1
"17/05/18","12:40",0.0,26.5,30.5,1006.4,300.4,1.5,3.6,330.2,0.64,7.8,23.0,"12:38:56",1
"17/05/18","12:50",0.2,25.9,29.8,1006.4,299.4,2.3,5.1,333.3,0.64,7.0,23.2,"12:42:08",1
"17/05/18","13:00",0.0,26.4,29.5,1006.2,309.1,2.1,6.4,338.5,0.63,7.2,23.1,"12:59:12",1
"17/05/18","13:10",0.0,25.9,28.4,1006.2,310.5,1.8,4.5,305.4,0.63,6.3,23.0,"13:00:24",1
"17/05/18","13:20",0.0,26.5,31.9,1006.2,320.1,1.7,5.6,335.1,0.62,8.5,23.0,"13:16:24",1
"17/05/18","13:30",0.0,26.4,29.3,1005.7,289.5,2.3,7.0,330.2,0.61,7.1,22.8,"13:29:52",1
"17/05/18","13:40",0.0,26.9,29.8,1006.0,334.9,2.5,7.7,325.1,0.60,7.8,22.7,"13:31:52",1
"17/05/18","13:50",0.0,26.4,28.0,1005.7,317.2,2.5,5.7,339.5,0.59,6.5,22.5,"13:42:40",1
"17/05/18","14:00",0.0,27.2,28.8,1005.7,244.0,1.5,4.5,337.5,0.58,7.6,22.5,"13:55:36",1
"17/05/18","14:10",0.0,27.2,25.1,1005.5,8.0,2.1,3.7,42.3,0.57,5.6,22.6,"14:04:24",1
"17/05/18","14:20",0.0,26.8,29.9,1005.7,220.0,2.0,3.3,161.0,0.55,7.8,22.7,"14:16:24",1
"17/05/18","14:30",0.0,27.3,28.4,1005.5,230.8,1.5,4.5,329.6,0.54,7.5,22.7,"14:28:32",1
"17/05/18","14:40",0.0,26.8,28.5,1005.2,322.3,2.2,5.6,344.7,0.52,7.1,22.7,"14:33:20",1
"17/05/18","14:50",0.0,27.7,25.2,1005.5,98.6,1.2,3.1,30.8,0.51,6.1,22.9,"14:48:40",1
"17/05/18","15:00",0.0,27.5,25.2,1005.2,65.8,1.2,3.9,77.7,0.49,5.9,22.9,"14:59:52",1
"17/05/18","15:10",0.0,28.0,25.0,1005.2,62.1,1.1,3.1,25.4,0.47,6.2,23.1,"15:01:20",1
"17/05/18","15:20",0.0,27.3,24.4,1005.0,9.4,2.1,3.9,33.9,0.45,5.3,23.0,"15:11:52",1
"17/05/18","15:30",0.0,26.8,26.5,1004.8,335.8,2.6,6.2,334.8,0.43,6.0,23.0,"15:25:12",1
"17/05/18","15:40",0.0,27.4,25.1,1005.0,345.5,1.5,3.3,340.2,0.41,5.7,23.1,"15:31:04",1
"17/05/18","15:50",0.0,27.7,27.6,1005.0,326.7,2.0,4.4,322.2,0.38,7.4,23.0,"15:42:24",1
"17/05/18","16:00",0.0,28.0,24.0,1005.2,351.4,1.8,5.2,17.9,0.36,5.6,22.9,"15:50:02",1
"17/05/18","16:10",0.0,27.8,23.5,1005.7,7.0,1.7,3.3,326.8,0.33,5.1,22.9,"16:07:12",1
"17/05/18","16:20",0.0,27.7,22.2,1005.5,352.1,1.8,4.1,340.5,0.31,4.2,22.9,"16:17:44",1
"17/05/18","16:30",0.0,27.3,24.4,1005.5,335.1,2.6,4.8,344.8,0.28,5.3,22.6,"16:24:00",1
"17/05/18","16:40",0.0,27.5,23.6,1005.5,325.0,1.2,3.3,328.4,0.26,4.9,22.8,"16:32:08",1
"17/05/18","16:50",0.0,27.2,25.6,1005.7,340.6,2.5,6.3,334.5,0.23,5.9,22.8,"16:47:04",1
"17/05/18","17:00",0.0,26.8,25.9,1006.0,344.3,2.3,4.1,343.4,0.21,5.7,22.7,"16:54:40",1
"17/05/18","17:10",0.0,26.6,26.3,1005.7,341.1,2.2,5.2,343.7,0.18,5.7,22.5,"17:06:00",1
"17/05/18","17:20",0.0,26.6,26.1,1006.0,351.1,1.6,5.0,328.3,0.14,5.6,22.4,"17:14:56",1
"17/05/18","17:30",0.0,26.2,27.8,1006.0,343.1,2.5,5.7,340.6,0.01,6.2,22.4,"17:24:48",1
"17/05/18","17:40",0.0,25.6,27.7,1006.2,332.9,2.7,6.2,343.7,0.00,5.6,22.2,"17:31:52",1
"17/05/18","17:50",0.0,25.2,30.3,1006.7,340.6,2.7,5.6,339.8,0.00,6.6,22.2,"17:43:36",1
"17/05/18","18:00",0.0,24.9,30.2,1006.7,329.9,2.6,4.4,325.5,0.00,6.3,22.3,"17:54:40",1
"17/05/18","18:10",0.0,24.5,31.0,1006.4,335.8,2.3,4.1,336.4,0.00,6.3,22.0,"18:01:20",1
"17/05/18","18:20",0.0,24.0,32.2,1006.4,333.5,2.3,3.5,330.2,0.00,6.4,22.1,"18:12:00",1
"17/05/18","18:30",0.0,23.2,34.2,1006.4,333.5,2.3,3.9,333.7,0.00,6.6,21.7,"18:21:12",1
"17/05/18","18:40",0.0,22.4,36.3,1007.1,330.9,2.7,4.1,335.5,0.00,6.8,21.7,"18:38:24",1
"17/05/18","18:50",0.0,21.6,38.1,1006.9,330.5,3.2,4.9,324.2,0.00,6.8,21.5,"18:49:28",1
"17/05/18","19:00",0.0,21.2,39.1,1007.4,333.3,2.8,4.9,340.8,0.00,6.8,21.2,"18:59:20",1
"17/05/18","19:10",0.0,20.7,40.7,1007.6,331.6,2.5,4.5,337.2,0.00,6.9,21.4,"19:08:00",1
"17/05/18","19:20",0.0,20.4,40.1,1007.4,327.4,3.1,4.5,327.2,0.00,6.4,21.1,"19:17:52",1
"17/05/18","19:30",0.0,20.2,39.4,1007.6,322.9,2.5,4.4,332.4,0.00,6.0,20.9,"19:20:08",1
"17/05/18","19:40",0.0,20.0,39.9,1008.1,323.1,2.3,4.0,328.3,0.00,6.0,20.8,"19:36:24",1
"17/05/18","19:50",0.0,19.7,40.5,1008.3,315.4,2.3,3.9,346.9,0.00,6.0,20.6,"19:43:20",1
"17/05/18","20:00",0.0,19.3,41.0,1008.3,316.2,2.0,3.2,332.6,0.00,5.8,20.2,"19:51:04",1
"17/05/18","20:10",0.0,19.0,42.6,1008.6,288.4,1.0,3.3,336.4,0.00,6.1,20.2,"20:00:24",1
"17/05/18","20:20",0.0,18.5,43.1,1009.0,287.0,0.8,2.0,322.1,0.00,5.8,20.0,"20:18:56",1
"17/05/18","20:30",0.0,18.3,44.0,1009.3,303.0,1.8,3.3,326.0,0.00,5.9,20.1,"20:22:00",1
"17/05/18","20:40",0.0,18.5,44.2,1009.3,327.4,3.7,5.7,335.5,0.00,6.1,19.9,"20:36:00",1
"17/05/18","20:50",0.0,18.5,42.7,1009.5,345.1,2.8,4.8,345.6,0.00,5.6,19.8,"20:49:04",1
"17/05/18","21:00",0.0,18.4,43.9,1009.7,337.3,2.6,5.0,342.1,0.00,5.9,19.6,"20:51:36",1
"17/05/18","21:10",0.0,17.9,44.5,1009.7,316.5,2.1,3.7,311.8,0.00,5.7,19.4,"21:06:00",1
"17/05/18","21:20",0.0,17.6,45.1,1010.0,305.8,1.6,3.2,333.7,0.00,5.6,19.4,"21:18:08",1
"17/05/18","21:30",0.0,17.7,45.3,1010.2,329.5,2.5,3.6,321.4,0.00,5.8,19.2,"21:27:36",1
"17/05/18","21:40",0.0,17.3,46.4,1010.2,303.1,1.6,3.7,336.8,0.00,5.7,19.0,"21:30:40",1
"17/05/18","21:50",0.0,16.6,48.9,1010.2,293.9,0.8,1.3,305.7,0.00,5.9,18.9,"21:40:40",1
"17/05/18","22:00",0.0,16.0,50.2,1010.2,304.1,0.5,1.0,306.5,0.00,5.7,18.9,"21:50:08",1
"17/05/18","22:10",0.0,15.5,51.8,1010.2,288.0,0.7,1.3,325.5,0.00,5.7,18.9,"22:08:40",1
"17/05/18","22:20",0.0,15.4,53.8,1010.2,286.9,1.1,1.9,331.5,0.00,6.1,18.6,"22:15:20",1
"17/05/18","22:30",0.0,15.1,54.8,1010.2,272.2,1.2,1.4,267.8,0.00,6.1,18.4,"22:23:12",1
"17/05/18","22:40",0.0,14.9,56.3,1010.2,306.0,1.3,2.5,330.8,0.00,6.3,18.2,"22:39:36",1
"17/05/18","22:50",0.0,14.7,56.9,1010.4,303.2,1.3,2.2,329.3,0.00,6.3,18.2,"22:44:00",1
"17/05/18","23:00",0.0,14.7,56.7,1010.4,313.4,1.8,2.8,335.7,0.00,6.2,18.2,"22:59:12",1
"17/05/18","23:10",0.0,14.8,56.4,1010.2,324.6,2.0,3.9,340.4,0.00,6.3,17.9,"23:06:40",1
"17/05/18","23:20",0.0,15.0,56.3,1010.0,328.9,2.3,4.7,332.0,0.00,6.4,18.0,"23:18:48",1
"17/05/18","23:30",0.0,15.0,56.1,1010.2,329.5,2.6,3.9,341.4,0.00,6.4,18.2,"23:24:16",1
"17/05/18","23:40",0.0,14.8,55.8,1010.2,327.8,2.5,3.5,335.1,0.00,6.1,17.7,"23:39:04",1
"17/05/18","23:50",0.0,14.6,56.5,1010.4,325.0,2.2,3.5,344.8,0.00,6.1,17.9,"23:41:52",1
"17/05/18","24:00",0.0,14.3,57.9,1010.4,312.3,1.6,2.8,337.7,0.00,6.2,17.7,"23:54:16",1
